[[{"header":{"parameterUnit":"m.s-1","parameterCategory":1,"la1":30.2991,"la2":30.254,"lo1":-89.0895,"lo2":-89.0444,"dy":0.0017,"dx":0.0017,"nx":28,"ny":28,"refTime":"2024-02-04T09:00:00:Z","depth":0,"parameterNumber":2,"parameterNumberName":"U-component_of_WINDS"},"data":[0,0,0,0,0,0,0,0,0,0,0,0,0,0,0,0,0,0,0,0,0,0,0,0,0,0,0,0,0,0,0,0,0,0,0,0,0,0,0,0,0,0,0,0,0,0,0,0,0,0,0,0,0,0,0,0,0,0,-10.3598,-10.3601,0,-10.3872,-10.3875,-10.3878,-10.3858,-10.3854,-10.385,-10.3846,-10.4108,-10.4118,-10.4129,0,0,0,0,0,0,0,0,0,0,0,0,0,-10.3043,-10.3053,-10.3597,-10.3601,-10.3604,-10.3871,-10.3875,-10.3878,-10.3859,-10.3854,-10.3849,-10.3844,-10.4105,-10.4117,-10.413,0,0,0,0,0,0,0,0,0,0,0,0,0,-10.3297,-10.3057,-10.3597,-10.3627,-10.3633,-10.387,-10.3875,-10.3879,-10.386,-10.3854,-10.3848,-10.3842,-10.41,-10.4116,-10.4132,-10.4351,0,0,-10.4181,-10.4188,0,0,0,0,0,0,0,0,-10.3282,-10.3317,-10.3619,-10.3626,-10.3632,-10.3825,-10.3775,-10.4037,-10.3861,-10.3773,-10.3846,-10.3839,-10.4018,-10.404,-10.4104,-10.4364,-10.4375,-10.4182,-10.4192,-10.4199,-10.4204,0,0,0,0,0,0,0,-10.3265,-10.3305,-10.3705,-10.3624,-10.3632,-10.3622,-10.3652,-10.3825,-10.3925,-10.378,-10.378,-10.3813,-10.402,-10.4089,-10.411,-10.4379,-10.4182,-10.4196,-10.4206,-10.4212,-10.4833,-10.484,0,0,0,0,0,0,-10.3243,-10.3291,-10.3697,-10.3713,-10.344,-10.3637,-10.367,-10.3769,-10.3923,-10.3941,-10.3818,-10.3811,-10.4064,-10.4091,-10.4119,-10.4386,-10.4199,-10.4214,-10.4223,-10.4826,-10.4835,-10.4842,0,0,0,0,0,0,-10.3231,-10.3279,-10.3685,-10.3502,-10.3553,-10.3653,-10.3764,-10.3777,-10.3846,-10.3952,-10.3968,-10.3871,-10.406,-10.4096,-10.4295,-10.4395,-10.4221,-10.4236,-10.4818,-10.4829,-10.4838,-10.4921,0,0,0,0,0,0,-10.3215,-10.3275,-10.3362,-10.3505,-10.3563,-10.3862,-10.377,-10.3787,-10.3876,-10.387,-10.4006,-10.4022,-10.4058,-10.4272,-10.4311,-10.4414,-10.4248,-10.481,-10.4823,-10.4835,-10.491,-10.4933,-10.4953,0,0,0,0,0,-10.3195,-10.337,-10.3367,-10.3416,-10.3676,-10.3867,-10.39,-10.3943,-10.3884,-10.3971,-10.404,-10.4018,-10.4379,-10.4292,-10.4337,-10.4445,-10.4803,-10.4819,-10.4834,-10.49,-10.4929,-10.4953,0,0,0,0,0,0,-10.3228,-10.3389,-10.3387,-10.3614,-10.3729,-10.3864,-10.3973,-10.3972,-10.41,-10.4087,-10.4131,-10.4161,-10.4361,-10.4424,-10.4324,-10.4667,-10.4583,-10.4608,-10.4618,-10.4646,-10.4667,-10.4644,-10.4262,0,0,0,0,0,-10.3264,-10.3412,-10.3542,-10.373,-10.3788,-10.3872,-10.3957,-10.3982,-10.4098,-10.4144,-10.4227,-10.4337,-10.4475,-10.4565,-10.4697,-10.4922,-10.4949,-10.5018,-10.504,-10.5057,-10.5076,-10.5199,-10.523,-10.4893,-10.4893,-10.4892,0,0,-10.3334,-10.3441,-10.353,-10.3739,-10.383,-10.3978,-10.3912,-10.407,-10.4178,-10.4166,-10.436,-10.4426,-10.4551,-10.4764,-10.4862,-10.4822,-10.5177,-10.5077,-10.509,-10.5099,-10.5218,-10.5249,-10.5278,-10.4903,-10.4901,-10.49,0,0,-10.3539,-10.3636,-10.3804,-10.3899,-10.4042,-10.4098,-10.4138,-10.4277,-10.4322,-10.452,-10.4514,-10.4642,-10.488,-10.497,-10.5046,-10.5293,-10.5277,-10.5335,-10.5444,-10.5564,-10.559,-10.5614,-10.5699,-10.5729,-10.5355,-10.5356,-10.5356,0,-10.3606,-10.3834,-10.3888,-10.4051,-10.4141,-10.4148,-10.4315,-10.4403,-10.4578,-10.4639,-10.4595,-10.4896,-10.498,-10.5214,-10.5276,-10.5339,-10.5383,-10.5316,-10.5583,-10.5608,-10.563,-10.5712,-10.5744,-10.5361,-10.5361,-10.536,-10.536,0,-10.391,-10.4068,-10.4186,-10.4364,-10.4469,-10.4633,-10.4708,-10.4807,-10.4825,-10.4884,-10.5085,-10.5189,-10.5343,-10.5402,-10.5417,-10.5639,-10.561,-10.5575,-10.549,-10.5667,-10.5744,-10.5776,-10.537,-10.5368,-10.5366,-10.5364,0,0,-10.4133,-10.4347,-10.4389,-10.4471,-10.4632,-10.4752,-10.4917,-10.5076,-10.5159,-10.5282,-10.5417,-10.5622,-10.5593,-10.568,-10.5706,-10.5812,-10.5998,-10.5763,-10.5767,-10.58,-10.6246,-10.6268,-10.6304,-10.5993,-10.5999,-10.6004,-10.6234,0,-10.4351,-10.4649,-10.4705,-10.4961,-10.5107,-10.5119,-10.5261,-10.5373,-10.5435,-10.5564,-10.563,-10.5774,-10.5725,-10.5778,-10.5884,-10.5953,-10.6087,-10.5938,-10.6112,-10.6118,-10.6076,-10.6345,-10.6368,-10.658,-10.6265,-10.627,-10.6274,0,-10.4642,-10.4782,-10.5055,-10.5201,-10.5264,-10.5392,-10.5543,-10.5669,-10.5796,-10.5833,-10.5936,-10.5952,-10.6119,-10.6033,-10.6261,-10.6159,-10.6234,-10.628,-10.629,-10.6302,-10.6202,-10.636,-10.6649,-10.6679,-10.6323,-10.6319,-10.6315,0,-10.4774,-10.5029,-10.5227,-10.5297,-10.5472,-10.5562,-10.5638,-10.5761,-10.5854,-10.5986,-10.6046,-10.6193,-10.6272,-10.6383,-10.6438,-10.6371,-10.6662,-10.658,-10.6692,-10.6691,-10.6747,-10.6741,-10.7047,-10.6805,-10.6805,-10.6804,-10.6803,0,-10.5008,-10.5173,-10.5289,-10.5409,-10.5595,-10.5659,-10.5839,-10.5912,-10.6023,-10.6154,-10.6173,-10.6294,-10.6362,-10.6493,-10.6537,-10.6718,-10.6754,-10.6785,-10.6793,-10.6781,-10.6776,-10.6825,-10.681,-10.6812,-10.6811,-10.6809,-10.6807,0,-10.5182,-10.5267,-10.5482,-10.5636,-10.5678,-10.5807,-10.5935,-10.6051,-10.6117,-10.6283,-10.6325,-10.6425,-10.6581,-10.665,-10.6839,-10.6868,-10.7074,-10.7074,-10.7033,-10.7034,-10.7141,-10.7129,-10.7485,-10.7533,-10.7264,-10.7267,-10.7269,0,-10.5322,-10.5451,-10.5621,-10.5715,-10.5796,-10.5946,-10.6044,-10.6113,-10.6212,-10.6372,-10.6467,-10.6626,-10.6755,-10.7003,-10.7088,-10.7234,-10.7234,-10.735,-10.7255,-10.7239,-10.7231,-10.722,-10.7232,-10.7363,-10.7366,-10.7368,-10.737,0,-10.5561,-10.5599,-10.5743,-10.5904,-10.6023,-10.6151,-10.6275,-10.6349,-10.6437,-10.6548,-10.6712,-10.6814,-10.7013,-10.7168,-10.7321,-10.7393,-10.7395,-10.7402,-10.7434,-10.7419,-10.7388,-10.7402,-10.7074,-10.739,-10.7388,-10.7387,-10.7386,-10.7385,-10.5719,-10.5836,-10.5976,-10.6136,-10.624,-10.6358,-10.6475,-10.656,-10.67,-10.6871,-10.6903,-10.7077,-10.7203,-10.741,-10.7489,-10.7623,-10.7593,-10.7642,-10.7653,-10.7662,-10.7667,-10.7374,-10.7651,-10.765,-10.765,-10.765,-10.7649,0,-10.5955,-10.6049,-10.6197,-10.6376,-10.6502,-10.6505,-10.6644,-10.6747,-10.6903,-10.7024,-10.7155,-10.7344,-10.7496,-10.7599,-10.7752,-10.7839,-10.7844,-10.7877,-10.7867,-10.7884,-10.7686,-10.7641,-10.787,-10.787,-10.787,-10.787,-10.787,-10.787,-10.6093,-10.629,-10.6345,-10.6593,-10.6684,-10.6861,-10.694,-10.7048,-10.7146,-10.7358,-10.7489,-10.7558,-10.7671,-10.7834,-10.7973,-10.7999,-10.8052,-10.8086,-10.8109,-10.7921,-10.7897,-10.7875,-10.7832,-10.8098,-10.8099,-10.8295,-10.8296,-10.8298]},{"header":{"parameterUnit":"m.s-1","parameterCategory":1,"la1":30.2991,"la2":30.254,"lo1":-89.0895,"lo2":-89.0444,"dy":0.0017,"dx":0.0017,"nx":28,"ny":28,"refTime":"2024-02-04T09:00:00:Z","depth":0,"parameterNumber":3,"parameterNumberName":"V-component_of_WINDS"},"data":[0,0,0,0,0,0,0,0,0,0,0,0,0,0,0,0,0,0,0,0,0,0,0,0,0,0,0,0,0,0,0,0,0,0,0,0,0,0,0,0,0,0,0,0,0,0,0,0,0,0,0,0,0,0,0,0,0,0,4.0858,4.0856,0,4.067,4.0668,4.0666,4.0498,4.0496,4.0494,4.0492,4.0299,4.0296,4.0292,0,0,0,0,0,0,0,0,0,0,0,0,0,4.1072,4.1069,4.0858,4.0855,4.0853,4.0671,4.0668,4.0665,4.0498,4.0496,4.0493,4.0491,4.03,4.0296,4.0292,0,0,0,0,0,0,0,0,0,0,0,0,0,4.0941,4.1068,4.0858,4.0748,4.0736,4.0671,4.0668,4.0665,4.0499,4.0496,4.0493,4.049,4.0301,4.0296,4.0292,4.0321,0,0,4.0277,4.0274,0,0,0,0,0,0,0,0,4.0949,4.0933,4.0766,4.0755,4.0742,4.0604,4.0672,4.0549,4.05,4.0589,4.0492,4.0489,4.0403,4.0389,4.0361,4.0312,4.0303,4.0276,4.0273,4.0271,4.027,0,0,0,0,0,0,0,4.0958,4.0941,4.0783,4.0764,4.0749,4.0708,4.0686,4.0648,4.0515,4.0581,4.0568,4.0548,4.0396,4.0366,4.0355,4.0301,4.0276,4.0272,4.0269,4.0267,4.0269,4.0272,0,0,0,0,0,0,4.0984,4.0949,4.0789,4.0778,4.084,4.0706,4.0682,4.0652,4.0515,4.0491,4.0551,4.0541,4.0376,4.0361,4.0348,4.0374,4.0271,4.0266,4.0264,4.0266,4.0269,4.0273,0,0,0,0,0,0,4.0989,4.0971,4.0797,4.086,4.0835,4.0706,4.0673,4.0649,4.0619,4.0492,4.0468,4.0545,4.0373,4.0355,4.0329,4.0365,4.0264,4.026,4.0262,4.0267,4.0271,4.0427,0,0,0,0,0,0,4.0996,4.0974,4.0983,4.0862,4.0832,4.0782,4.0675,4.0648,4.0612,4.0597,4.048,4.0458,4.0369,4.0338,4.0325,4.0356,4.0256,4.0258,4.0264,4.027,4.0418,4.0437,4.0452,0,0,0,0,0,4.1004,4.1034,4.0985,4.0966,4.0841,4.0784,4.0767,4.0665,4.0615,4.0624,4.0543,4.0462,4.0364,4.0337,4.032,4.0351,4.0256,4.0263,4.0269,4.0411,4.0433,4.0452,0,0,0,0,0,0,4.1162,4.1016,4.096,4.0951,4.0882,4.0756,4.0764,4.0691,4.0634,4.0623,4.0498,4.0473,4.0463,4.0404,4.0376,4.0374,4.0299,4.0303,4.0412,4.0432,4.0449,4.0463,4.0252,0,0,0,0,0,4.1196,4.1163,4.1036,4.1041,4.1009,4.0894,4.0865,4.0792,4.0715,4.0685,4.0601,4.053,4.0483,4.0454,4.0403,4.041,4.0382,4.0423,4.044,4.0455,4.0459,4.046,4.0477,4.0295,4.0295,4.0295,0,0,4.1266,4.1182,4.1168,4.1071,4.1008,4.0977,4.0869,4.084,4.0816,4.068,4.0651,4.0589,4.05,4.0492,4.0484,4.0443,4.0504,4.0463,4.0476,4.0472,4.0469,4.0487,4.0502,4.03,4.0299,4.0298,0,0,4.1376,4.1309,4.1306,4.1247,4.1155,4.1078,4.1078,4.0964,4.0917,4.0887,4.0786,4.0755,4.0676,4.0618,4.0579,4.0672,4.0596,4.0659,4.0747,4.075,4.0764,4.0776,4.0811,4.0825,4.0664,4.0665,4.0665,0,4.1474,4.1422,4.1314,4.1292,4.1253,4.113,4.1127,4.1075,4.0971,4.0948,4.0903,4.0804,4.0736,4.0713,4.0737,4.0708,4.0705,4.0671,4.0771,4.0782,4.0792,4.0823,4.0837,4.0673,4.0672,4.0671,4.067,0,4.1548,4.1515,4.1524,4.1428,4.139,4.1378,4.1269,4.1243,4.1175,4.1104,4.1076,4.0991,4.0922,4.0911,4.0843,4.088,4.0857,4.0794,4.0716,4.0819,4.0847,4.0858,4.0685,4.0682,4.0679,4.0677,0,0,4.175,4.1598,4.1603,4.156,4.1451,4.1422,4.1406,4.134,4.1322,4.1255,4.1238,4.1177,4.1118,4.1073,4.0998,4.1001,4.1082,4.0937,4.0933,4.0968,4.1119,4.1168,4.1184,4.1032,4.1034,4.1035,4.1127,0,4.1844,4.1807,4.171,4.1703,4.1672,4.1557,4.1542,4.1475,4.1408,4.1372,4.1298,4.1257,4.1182,4.1155,4.1152,4.1073,4.1111,4.1065,4.1016,4.1015,4.1042,4.1198,4.1248,4.1339,4.1137,4.1139,4.114,0,4.1947,4.189,4.188,4.1776,4.1759,4.1748,4.1681,4.1648,4.1569,4.1521,4.1473,4.1391,4.1368,4.1297,4.1264,4.1236,4.121,4.1169,4.117,4.1161,4.1084,4.1194,4.1365,4.138,4.1156,4.1154,4.1153,0,4.2098,4.2018,4.2002,4.1968,4.1846,4.1841,4.179,4.1708,4.1676,4.1618,4.1596,4.1536,4.1503,4.1458,4.1363,4.1319,4.1342,4.1262,4.1301,4.1304,4.1311,4.1312,4.1481,4.1294,4.1294,4.1294,4.1293,0,4.2212,4.2211,4.2069,4.2059,4.2056,4.1946,4.1945,4.1882,4.1812,4.1789,4.1685,4.1666,4.1541,4.1507,4.1432,4.1418,4.1403,4.1364,4.1344,4.1374,4.1379,4.1355,4.1347,4.1297,4.1296,4.1296,4.1295,0,4.2379,4.2283,4.2259,4.2146,4.2118,4.2121,4.2024,4.2011,4.1939,4.1912,4.1899,4.1787,4.1742,4.1643,4.1571,4.1521,4.1526,4.1489,4.1553,4.154,4.1586,4.1584,4.1746,4.1762,4.1566,4.1568,4.1569,0,4.2458,4.2455,4.2343,4.2321,4.2274,4.2239,4.2206,4.2099,4.2069,4.1981,4.198,4.1927,4.188,4.1815,4.1727,4.1672,4.1634,4.1695,4.1625,4.1655,4.1636,4.1638,4.1638,4.171,4.1713,4.1715,4.1717,0,4.261,4.2564,4.2521,4.2462,4.2427,4.2375,4.2317,4.2305,4.2184,4.2156,4.211,4.2074,4.2002,4.1952,4.1885,4.1832,4.1755,4.174,4.1746,4.1776,4.1814,4.1796,4.1596,4.1736,4.1734,4.1733,4.1732,4.1731,4.2736,4.2729,4.265,4.2606,4.2552,4.2502,4.2485,4.2413,4.2373,4.2307,4.2246,4.2207,4.2131,4.2032,4.1985,4.1953,4.1914,4.1923,4.1925,4.193,4.1943,4.182,4.194,4.1939,4.1939,4.1938,4.1938,0,4.2883,4.2828,4.2789,4.2713,4.2679,4.2611,4.2545,4.2522,4.2489,4.2425,4.2381,4.233,4.2282,4.2191,4.2136,4.2128,4.2091,4.2117,4.2116,4.2106,4.198,4.1981,4.2147,4.2147,4.2147,4.2147,4.2147,4.2147,4.2956,4.2942,4.2887,4.2845,4.2789,4.2751,4.2719,4.2673,4.2621,4.2569,4.253,4.2471,4.2397,4.2336,4.2289,4.2263,4.2248,4.2286,4.2249,4.2134,4.2114,4.2095,4.2095,4.2283,4.2283,4.2377,4.2378,4.2379]}]]